Regional Weather Roundup
Issued by NWS

Home | Current Version | Previous Version | Graphics & Text | Print | Product List | Glossary On
Versions: 1 2 3 4 5 6 7 8 9 10 11 12 13 14 15 16 17 18 19 20 21 22 23 24 25 26 27 28 29 30 31 32 33 34 35 36 37 38 39 40 41 42 43 44 45 46 47 48 49 50
000
ASUS43 KMKX 280400
RWRWI

WISCONSIN REGIONAL WEATHER ROUNDUP
NATIONAL WEATHER SERVICE MILWAUKEE/SULLIVAN WI
1100 PM CDT FRI MAY 27 2016

NOTE: "FAIR" INDICATES FEW OR NO CLOUDS BELOW 12,000 FEET WITH NO
SIGNIFICANT WEATHER AND/OR OBSTRUCTIONS TO VISIBILITY.

WIZ001-002-006>008-014>016-023>028-280500-
NORTHWEST WISCONSIN

CITY           SKY/WX    TMP DP  RH WIND       PRES   REMARKS
SUPERIOR ARPT  DRIZZLE   46  46 100 NE9       29.82F
ASHLAND        CLOUDY    47  46  97 NE9       29.80S FOG
HAYWARD        CLOUDY    55  53  93 N6        29.76F
SIREN          CLOUDY    57  55  90 NE5       29.78R
CUMBERLAND     CLOUDY    57  55  94 CALM      29.77R
RICE LAKE      CLOUDY    60  59  96 CALM      29.77R
CHETEK         MOCLDY    61  61 100 CALM      29.76R
LADYSMITH      DRIZZLE   66  65  95 SE3       29.78S
EAU CLAIRE     NOT AVBL
MENOMONIE      CLOUDY    63  63  99 CALM      29.77R
NEW RICHMOND   CLOUDY    63  62  96 CALM      29.77R
OSCEOLA        CLOUDY    64  64 100 CALM      29.79R
$$

WIZ003>005-009-010-017-018-280500-
NORTH CENTRAL WISCONSIN

CITY           SKY/WX    TMP DP  RH WIND       PRES   REMARKS
MANITOWISH WTR NOT AVBL
ARBOR VITAE    CLOUDY    66  62  89 SE7       29.81S
WOODRUFF       CLOUDY    66  62  89 SE7       29.81S
RHINELANDER    CLOUDY    65  62  90 SE8       29.82S
EAGLE RIVER      N/A     65  63  94 SE6       29.82F
LAND O LAKES   CLOUDY    65  63  93 SE7       29.84S
PHILLIPS       CLOUDY    65  63  92 SE9       29.77F
TOMAHAWK       CLOUDY    64  62  94 CALM      29.81S
MEDFORD        CLOUDY    65  65 100 SE9       29.78S
MERRILL        CLOUDY    65  65 100 SE7       29.80F
$$

WIZ029-030-035-036-043>047-280500-
CENTRAL WISCONSIN

CITY           SKY/WX    TMP DP  RH WIND       PRES   REMARKS
WAUSAU         CLOUDY    68  65  90 SE7       29.78S
MOSINEE        CLOUDY    64  64 100 SE7       29.82R
MARSHFIELD     MOCLDY    68  65  90 SE9       29.77F
STEVENS POINT  CLOUDY    65  64  99 SE5       29.81R
WAUPACA        CLOUDY    69  69  99 SE5       29.81S
WAUTOMA        MOCLDY    67  67 100 SE6       29.80S
WISC RAPIDS    LGT RAIN  67  64  90 SE7       29.80S FOG
CAMP DOUGLAS   MOCLDY    68 N/A N/A E5        29.77S
$$

WIZ011>013-019>022-031-037>040-048>050-280500-
NORTHEAST WISCONSIN

CITY           SKY/WX    TMP DP  RH WIND       PRES   REMARKS
ANTIGO         CLOUDY    64  64 100 SE14      29.83R
SHAWANO        CLOUDY    67  65  94 CALM      29.83R FOG
OCONTO         CLOUDY   N/A N/A N/A E5        29.84S
STURGEON BAY   NOT AVBL
GREEN BAY      CLOUDY    65  64  97 SE5       29.82S
MANITOWOC      NOT AVBL
APPLETON       CLOUDY    66  66 100 SE8       29.81R
CLINTONVILLE   CLOUDY    66  64  94 S6        29.82R FOG
OSHKOSH        CLOUDY    68  66  93 SE9       29.81R
$$

WIZ032>034-041-042-053>061-280500-
SOUTHWEST WISCONSIN

CITY           SKY/WX    TMP DP  RH WIND       PRES   REMARKS
LA CROSSE      PTCLDY    68  67  96 SE3       29.75R FOG
SPARTA         PTCLDY    64  64 100 CALM      29.77S FOG
VIROQUA        PTCLDY    65  65 100 SE5       29.79R
BOSCOBEL       CLOUDY    67  65  93 CALM      29.77R
PRAIRIE DU CHI MOCLDY    67  64  90 CALM      29.76S
PLATTEVILLE    CLOUDY    71  68  91 SE5       29.79R
$$

WIZ056-057-062-063-064-067-068-280500-
SOUTH CENTRAL WISCONSIN

CITY           SKY/WX    TMP DP  RH WIND       PRES   REMARKS
REEDSBURG      CLOUDY    69  68  94 S9        29.78R
BARABOO/DELLS  PTCLDY    69  65  88 S5        29.79S
LONE ROCK      NOT AVBL
MINERAL POINT  CLOUDY    72  68  88 S5        29.80S
MADISON        MOCLDY    71  66  84 S8        29.80R
MIDDLETON      PTCLDY    71  67  85 S5        29.80S
WATERTOWN      MOCLDY    69  69 100 SE5       29.82R
MONROE         CLOUDY    70  64  83 S8        29.81S
JANESVILLE     CLOUDY    72  68  88 S7        29.81
$$

WIZ051-052-058>065-066-070>072-280500-
SOUTHEAST WISCONSIN

CITY           SKY/WX    TMP DP  RH WIND       PRES   REMARKS
MILWAUKEE      CLOUDY    69  64  84 S13       29.84F
WAUKESHA       MOCLDY    68  64  88 S8        29.85S
MILWAUKEE/TIMM MOCLDY    68  63  83 S7        29.85S
RACINE         CLOUDY    68  62  81 S12       29.87S
BURLINGTON     CLOUDY    69  67  93 SE8       29.84S FOG
KENOSHA        CLOUDY    71  65  81 S14       29.86R
FOND DU LAC    MOCLDY    68  66  93 S7        29.82R
SHEBOYGAN      MOCLDY    62  60  93 S8        29.85R FOG
WEST BEND      PTCLDY    66  64  94 S3        29.84R
JUNEAU         PTCLDY    67  66  96 SE9       29.83R
$$

LSZ147-162-280500-
LAKE SUPERIOR

STATION/POSITION TIME  TEMP    WIND        PRES    WAVE
                       AIR SEA DIR/SP/G            HT/PER
                 (UTC) (F)     (DEG/KT/KT) (MB)    (FT/S)
W MID LAKE BUOY  0250   41 38   50/ 16/ 19 1011.1R   2/ 3
DEVILS ISLAND    0300   46      60/ 20/ 22 1010.3F
SAXON HARBOR     0340   46      30/  2/  4 1008.5F
$$

LMZ867-665-643>646-280500-
LAKE MICHIGAN

STATION/POSITION TIME  TEMP    WIND        PRES    WAVE
                       AIR SEA DIR/SP/G            HT/PER
                 (UTC) (F)     (DEG/KT/KT) (MB)    (FT/S)
CHAMBERS ISLAND  0300   61     110/  4/  7 1011.5
N MID LAKE BUOY  0250   52 47  130/  6/  8 1011.9F   0
NORTHPORT PIER   0300   55     120/  6/  7 1011.9S
SISTER BAY       0320   59     120/  6/ 10   N/A
ALGOMA LAKESHORE 0317             CALM       N/A
KEWAUNEE LAKESHO 0300           60/  3/  4 1010.4R
SHEBOYGAN LAKESH 0300   56     160/ 10/ 10 1011.0R
PORT WASHINGTON  0300   58     140/  3/  4 1011.5
S MID LAKE BUOY  0250   58 50  160/ 16/ 17 1011.6R   1/ 3
KENOSHA   LAKESH 0300   59     180/ 13/ 18 1011.2R
$$

TC  - TEMPERATURE IN CELSIUS
VSB - VISIBILITY IN STATUTE MILES
WCI - WIND CHILL INDEX
HX  - HEAT INDEX





USA.gov is the U.S. government's official web portal to all federal, state and local government web resources and services.